Regional Weather Roundup
Issued by NWS

Home | Current Version | Previous Version | Graphics & Text | Print | Product List | Glossary On
Versions: 1 2 3 4 5 6 7 8 9 10 11 12 13 14 15 16 17 18 19 20 21 22 23 24 25 26 27 28 29 30 31 32 33 34 35 36 37 38 39 40 41 42 43 44 45 46 47 48 49 50
000
ASUS43 KDTX 180310
RWRMI
MICHIGAN HOURLY REGIONAL WEATHER ROUNDUP
NATIONAL WEATHER SERVICE DETROIT/PONTIAC MI
1000 PM EST FRI NOV 17 2017

NOTE: "FAIR" INDICATES FEW OR NO CLOUDS BELOW 12,000 FEET WITH NO
SIGNIFICANT WEATHER AND/OR OBSTRUCTION TO VISIBILITY.

MIZ047>049-052>055-059>063-066>070-074>076-081>083-180400-
SOUTHEAST LOWER MICHIGAN

CITY           SKY/WX    TMP DP  RH WIND       PRES   REMARKS
ADRIAN         MOCLDY    42  33  70 S14       29.76F
ALMA           LGT SNOW  40  38  92 S5        29.68F
ANN ARBOR      CLOUDY    41  35  79 SE7       29.76F
BAD AXE        LGT RAIN  39  34  82 S14G20    29.74F WCI  31
CARO           LGT RAIN  40  35  84 S8        29.72F WCI  34
DETROIT CITY   MOCLDY    43  33  68 S14G21    29.81F
DETROIT        LGT RAIN  44  34  67 S14       29.80F
FLINT          LGT RAIN  43  33  68 S16G26    29.73F
GROSSE ILE     CLOUDY    44  36  73 S13       29.81F
HILLSDALE      LGT RAIN  41  34  75 S12G20    29.70F
HOWELL         LGT RAIN  41  35  77 S14G23    29.71F

CITY           SKY/WX    TMP DP  RH WIND       PRES   REMARKS
JACKSON        LGT RAIN  42  34  73 SE13G24   29.70F
LAMBERTVILLE   MOCLDY    46  33  60 S9        29.78F
LANSING        LGT RAIN  42  36  79 S15       29.69F
LAPEER         CLOUDY    42  33  72 S10G21    29.75F
MASON          CLOUDY    43  35  72 S17       29.69F
MONROE         LGT RAIN  44  33  65 S9        29.79F
MT. CLEMENS    CLOUDY    43  36  76 S16G22    29.78F
PONTIAC        CLOUDY    42  34  73 S13G24    29.76F
PORT HOPE        N/A     40  34  79 S9G23     29.73F WCI  34
PORT HURON     CLOUDY    43  32  65 S13G18    29.81F
TRI CITIES     CLOUDY    40  37  89 SE15      29.68F WCI  32
MIDLAND        CLOUDY    40  36  84 SE9G17    29.66F WCI  34
TROY           CLOUDY    45  35  68 S10       29.81F
SAGINAW HB     RAIN      39  36  87 SE15      29.68F WCI  31
$$
MIZ043>046-050>051-056>058-064>065-071>073-077>080-180400-
SOUTHWEST LOWER MICHIGAN

CITY           SKY/WX    TMP DP  RH WIND       PRES   REMARKS
BATTLE CREEK   HVY RAIN  41  38  89 S18G29    29.67F FOG
BENTON HARBOR  CLOUDY    43  38  82 SE15G26   29.63S
BIG RAPIDS     LGT SNOW  37  36  93 SE9       29.64F WCI  31
COLDWATER      RAIN      42  36  81 SE12G18   29.67F
FREMONT        LGT RAIN  39  39 100 SE8       29.63F WCI  33
HOLLAND        RAIN      42  39  89 S13       29.63F FOG
GRAND RAPIDS   RAIN      41  41 100 SE16      29.63F FOG
IONIA          LGT RAIN  41  37  84 S12       29.65F
KALAMAZOO      HVY RAIN  41  37  86 S14       29.67F FOG
LUDINGTON      HVY RAIN  39  37  93 S8        29.62F WCI  34
MARSHALL       LGT RAIN  41  37  88 S6        29.69F
MOUNT PLEASANT MIX PCPN  39  37  90 S7        29.66S WCI  34
MUSKEGON       HVY RAIN  41  38  89 SE5       29.65S FOG
SOUTH HAVEN    CLOUDY    42  40  91 S12G18    29.63S
$$
MIZ016>042-180400-
NORTHERN LOWER MICHIGAN

CITY           SKY/WX    TMP DP  RH WIND       PRES   REMARKS
ALPENA         RAIN      37  36  96 CALM      29.73R FOG
BEAVER ISLAND  CLOUDY    38  37  97 SE6       29.64F WCI  34
BELLAIRE       MIX PCPN  36  36 100 SE3       29.66F
CADILLAC       LGT RAIN  36  35  99 S7        29.62F WCI  30
CHARLEVOIX     RAIN      36  36 100 E5        29.68F WCI  32
FRANKFORT      DRIZZLE   39  39 100 SE6       29.62F WCI  35
GAYLORD        CLOUDY    33  33 100 SE6       29.65F FOG     WCI  28
GRAYLING       MIX PCPN  36  33  90 SW3       29.69R
HARBOR SPRINGS MIX PCPN  34  33  99 E5        29.67F WCI  29
HOUGHTON LAKE  RAIN      36  34  92 S12       29.67F FOG     WCI  28
MANISTEE       LGT RAIN  39  37  92 SE6       29.62F WCI  35
OSCODA         MIX PCPN  37  33  84 S12       29.70F WCI  30
PELLSTON       RAIN      34  34 100 E3        29.68F FOG
ROGERS CITY    LGT RAIN  35  33  94 E8        29.72F WCI  28
TRAVERSE CITY  LGT RAIN  38  36  92 E3        29.63F
$$
MIZ007>008-015-180400-
EASTERN UPPER MICHIGAN

CITY           SKY/WX    TMP DP  RH WIND       PRES   REMARKS
KINROSS        LGT RAIN  33  33 100 SE10      29.69F FOG     WCI  25
MACKINAC ISLAN LGT SNOW  36  35  96 SE7       29.68F WCI  30
NEWBERRY       CLOUDY    32  31  97 E8        29.63F FOG     WCI  25
S. S. MARIE    LGT RAIN  35  33  92 SE9       29.69F FOG     WCI  28
MUNISING         N/A     37  36  96 CALM      29.62F
$$
MIZ004>006-011>014-085-180400-
CENTRAL UPPER MICHIGAN

CITY           SKY/WX    TMP DP  RH WIND       PRES   REMARKS
MANISTIQUE     RAIN      40  35  81 CALM      29.61F
ESCANABA       LGT RAIN  38  37  97 W6        29.63R FOG     WCI  33
MENOMINEE      LGT RAIN  38  37  97 CALM      29.64F FOG
SAWYER-GWINN   LGT SNOW  32  32 100 NW3       29.61F
$$
MIZ001>003-009>011-084-180400-
WESTERN UPPER MICHIGAN

CITY           SKY/WX    TMP DP  RH WIND       PRES   REMARKS
IRON MOUNTAIN  SNOW      32  30  92 CALM      29.59F VSB 1/2
HOUGHTON       CLOUDY    33  31  92 NW5       29.60F FOG     WCI  29
COPPER HARBOR    N/A     34  32  92 CALM      29.63R
IRONWOOD       CLOUDY   N/A N/A N/A CALM      29.61F HAZE
$$

ABBREVIATIONS USED IN REMARKS
   TC - TEMPERATURE IN CELSIUS
  WCI - WIND CHILL INDEX
   HX - HEAT INDEX
  VSB - VISIBILITY




USA.gov is the U.S. government's official web portal to all federal, state and local government web resources and services.